Clearfield, PA

12:34 AM EST on December 13, 2017 (GMT -0500)
Clearfield-Lawrence

Weather History for KFIG - November, 2013

Change the Weather History Date:

Saturday, November 2, 2013

  Actual Average (KDUJ) Record (KDUJ)
Temperature  
Mean Temperature 44 °F -  
Max Temperature 52 °F 56 °F 76 °F (1982)
Min Temperature 37 °F 40 °F 23 °F (1965)
Degree Days  
Heating Degree Days 21    
Moisture  
Dew Point 41 °F    
Average Humidity 88    
Maximum Humidity 100    
Minimum Humidity 61    
Precipitation  
Precipitation 0.07 in - - ()
Sea Level Pressure  
Sea Level Pressure 29.77 in    
Wind  
Wind Speed 4 mph (WSW)    
Max Wind Speed 10 mph    
Max Gust Speed 20 mph    
Visibility 9 miles    
Events Rain    
Averages and records for this station are not official NWS values.
T = Trace of Precipitation, MM = Missing Value Source: NWS Daily Summary

Daily Weather History Graph

Daily Weather History Graph

Search for Another Location

Airport or City:

Trip Planner

Search our weather history database for the weather conditions in past years. The results will help you decide how hot, cold, wet, or windy it might be!

Date:

Astronomy

Nov. 02, 2013 Rise Set
Actual Time 7:45 AM EDT 6:07 PM EDT
Civil Twilight 7:17 AM EDT 6:36 PM EDT
Nautical Twilight 6:44 AM EDT 7:09 PM EDT
Astronomical Twilight 6:12 AM EDT 7:41 PM EDT
Moon 6:40 AM EDT (11/2) 5:38 PM EDT (11/2)
Length of Visible Light 11h 19m
Length of Day
10h 21m
Waning Crescent, 1% of the Moon is Illuminated
Nov 2
Waning Crescent
Nov 3
New
Nov 10
First Quarter
Nov 17
Full
Nov 25
Last Quarter

Hourly Weather History & Observations

Time (EDT) Temp. Windchill Dew Point Humidity Pressure Visibility Wind Dir Wind Speed Gust Speed Precip Events Conditions
12:54 AM 41.0 °F - 39.0 °F 93% 29.68 in 10.0 mi Calm Calm - N/A   Clear
1:54 AM 41.0 °F - 39.0 °F 93% 29.68 in 10.0 mi Calm Calm - N/A   Clear
2:54 AM 37.9 °F 35.5 °F 37.9 °F 100% 29.68 in 9.0 mi NNW 3.5 mph - N/A   Mostly Cloudy
3:54 AM 39.9 °F - 39.9 °F 100% 29.68 in 10.0 mi Calm Calm - N/A   Overcast
4:54 AM 37.9 °F 35.5 °F 37.9 °F 100% 29.69 in 5.0 mi SSW 3.5 mph - N/A   Mostly Cloudy
5:54 AM 39.0 °F - 39.0 °F 100% 29.69 in 7.0 mi Calm Calm - N/A   Mostly Cloudy
6:54 AM 39.9 °F - 39.9 °F 100% 29.70 in 8.0 mi Calm Calm - N/A   Overcast
7:54 AM 39.9 °F - 39.9 °F 100% 29.70 in 6.0 mi Calm Calm - N/A   Overcast
8:54 AM 42.1 °F - 41.0 °F 96% 29.73 in 10.0 mi Calm Calm - N/A   Overcast
9:54 AM 48.0 °F - 44.1 °F 86% 29.73 in 10.0 mi SSW 5.8 mph - N/A   Mostly Cloudy
10:54 AM 48.0 °F - 41.0 °F 77% 29.72 in 10.0 mi SSW 6.9 mph - N/A   Scattered Clouds
11:54 AM 50.0 °F - 37.9 °F 63% 29.73 in 10.0 mi West 10.4 mph - N/A   Overcast
12:54 PM 51.1 °F - 39.0 °F 63% 29.73 in 10.0 mi WSW 8.1 mph - N/A   Overcast
1:54 PM 51.1 °F - 37.9 °F 61% 29.72 in 10.0 mi West 10.4 mph - N/A   Overcast
2:54 PM 51.1 °F - 39.0 °F 63% 29.73 in 10.0 mi West 10.4 mph 19.6 mph N/A   Overcast
3:54 PM 50.0 °F - 39.0 °F 66% 29.74 in 10.0 mi West 9.2 mph 17.3 mph N/A   Overcast
4:54 PM 48.0 °F - 42.1 °F 80% 29.77 in 10.0 mi WSW 8.1 mph - 0.01 in   Mostly Cloudy
5:54 PM 46.9 °F - 42.1 °F 83% 29.79 in 10.0 mi West 6.9 mph - N/A   Overcast
6:31 PM 46.4 °F 42.9 °F 42.8 °F 87% 29.78 in 10.0 mi Variable 6.9 mph - 0.00 in Rain Light Rain
6:40 PM 44.6 °F 40.2 °F 41.0 °F 87% 29.78 in 9.0 mi West 8.1 mph 17.3 mph 0.01 in Rain Light Rain
6:54 PM 44.1 °F 40.8 °F 42.1 °F 93% 29.81 in 9.0 mi West 5.8 mph - 0.03 in Rain Light Rain
7:25 PM 44.6 °F 40.7 °F 42.8 °F 93% 29.81 in 10.0 mi West 6.9 mph - 0.00 in   Overcast
7:54 PM 44.1 °F 41.5 °F 42.1 °F 93% 29.85 in 10.0 mi SW 4.6 mph - 0.00 in   Overcast
8:39 PM 44.6 °F 43.1 °F 42.8 °F 93% 29.83 in 6.0 mi SSW 3.5 mph - 0.01 in Rain Light Rain
8:54 PM 44.1 °F - 43.0 °F 96% 29.86 in 9.0 mi Calm Calm - 0.01 in Rain Light Rain
9:24 PM 42.8 °F 41.1 °F 42.8 °F 100% 29.84 in 10.0 mi WSW 3.5 mph - 0.00 in Rain Light Rain
9:54 PM 43.0 °F 41.3 °F 43.0 °F 100% 29.87 in 10.0 mi SSW 3.5 mph - 0.01 in Rain Light Rain
10:54 PM 44.1 °F 39.0 °F 41.0 °F 89% 29.89 in 10.0 mi NW 9.2 mph - 0.00 in Rain Light Rain
11:06 PM 42.8 °F 38.0 °F 41.0 °F 93% 29.87 in 10.0 mi NNW 8.1 mph - 0.00 in Rain Light Rain
11:54 PM 42.1 °F 39.2 °F 41.0 °F 96% 29.91 in 10.0 mi North 4.6 mph - 0.01 in   Overcast